Location: Limerick
(52.6650°N, 8.6230°W)
Time: 06:56:32
(UTC+01:00)

ISS - Pass Details

Date: 01 September 2019
Orbit: 411 x 421 km, 51.6° (Epoch: 16 October)

Event Time Altitude Azimuth Distance (km) Brightness Sun altitude
Exits shadow 04:32:38 13° 148° (SSE) 1,300 -1.4 -18.2°
Maximum altitude 04:32:59 14° 141° (SE) 1,292 -1.3 -18.1°
Drops below altitude 10° 04:34:43 10° 109° (ESE) 1,492 -0.6 -17.9°
Sets 04:37:37 0° 82° (E) 2,362 1.0 -17.6°
